Las Cruces, NM

4:06 PM MST on February 22, 2018 (GMT -0700)
Las Cruces International

Weather History for KLRU - May, 2013

Change the Weather History Date:

Wednesday, May 8, 2013

  Actual Average Record
Temperature  
Mean Temperature 66 °F -  
Max Temperature 78 °F 82 °F 93 °F (2004)
Min Temperature 54 °F 52 °F 41 °F (2014)
Cooling Degree Days 1    
Growing Degree Days 16 (Base 50)    
Moisture  
Dew Point 22 °F    
Average Humidity 20    
Maximum Humidity 32    
Minimum Humidity 10    
Precipitation  
Precipitation 0.00 in - - ()
Sea Level Pressure  
Sea Level Pressure 30.03 in    
Wind  
Wind Speed 12 mph (West)    
Max Wind Speed 24 mph    
Max Gust Speed 33 mph    
Visibility 10 miles    
Events      
Averages and records for this station are not official NWS values.
T = Trace of Precipitation, MM = Missing Value Source: NWS Daily Summary

Daily Weather History Graph

Daily Weather History Graph

Search for Another Location

Airport or City:

Trip Planner

Search our weather history database for the weather conditions in past years. The results will help you decide how hot, cold, wet, or windy it might be!

Date:

Astronomy

May. 08, 2013 Rise Set
Actual Time 6:14 AM MDT 7:53 PM MDT
Civil Twilight 5:48 AM MDT 8:20 PM MDT
Nautical Twilight 5:16 AM MDT 8:52 PM MDT
Astronomical Twilight 4:42 AM MDT 9:26 PM MDT
Moon 5:20 AM MDT (5/8) 6:57 PM MDT (5/8)
Length of Visible Light 14h 32m
Length of Day
13h 39m
Waning Crescent, 2% of the Moon is Illuminated
May 8
Waning Crescent
May 9
New
May 17
First Quarter
May 24
Full
May 31
Last Quarter

Hourly Weather History & Observations

Time (MDT) Temp. Dew Point Humidity Pressure Visibility Wind Dir Wind Speed Gust Speed Precip Events Conditions
12:15 AM 59.0 °F 20.3 °F 22% 30.00 in 10.0 mi WSW 9.2 mph - N/A   Clear
12:35 AM 59.0 °F 21.0 °F 23% 30.00 in 10.0 mi West 10.4 mph - N/A   Clear
12:55 AM 59.9 °F 21.9 °F 23% 30.00 in 10.0 mi West 13.8 mph - N/A   Clear
1:15 AM 60.1 °F 22.8 °F 24% 30.00 in 10.0 mi West 13.8 mph - N/A   Clear
1:35 AM 60.1 °F 23.4 °F 24% 30.00 in 10.0 mi West 11.5 mph - N/A   Clear
1:55 AM 61.5 °F 23.9 °F 24% 30.00 in 10.0 mi West 12.7 mph - N/A   Clear
2:15 AM 60.4 °F 24.3 °F 25% 30.00 in 10.0 mi West 10.4 mph - N/A   Clear
2:35 AM 59.2 °F 25.0 °F 27% 30.00 in 10.0 mi West 10.4 mph - N/A   Clear
2:55 AM 59.4 °F 25.7 °F 28% 30.00 in 10.0 mi West 10.4 mph - N/A   Clear
3:15 AM 58.1 °F 25.7 °F 29% 30.01 in 10.0 mi WSW 6.9 mph - N/A   Clear
3:35 AM 59.2 °F 26.6 °F 29% 30.01 in 10.0 mi West 12.7 mph - N/A   Clear
3:55 AM 59.2 °F 27.1 °F 29% 30.01 in 10.0 mi West 12.7 mph - N/A   Clear
4:15 AM 58.5 °F 27.1 °F 30% 30.02 in 10.0 mi West 9.2 mph - N/A   Clear
4:35 AM 55.4 °F 25.7 °F 32% 30.02 in 10.0 mi WSW 6.9 mph - N/A   Clear
4:55 AM 55.4 °F 25.7 °F 32% 30.02 in 10.0 mi West 11.5 mph - N/A   Clear
5:15 AM 56.5 °F 25.3 °F 30% 30.03 in 10.0 mi West 12.7 mph - N/A   Clear
5:35 AM 55.4 °F 24.8 °F 31% 30.03 in 10.0 mi West 11.5 mph - N/A   Clear
5:55 AM 55.8 °F 24.4 °F 30% 30.03 in 10.0 mi West 15.0 mph - N/A   Clear
6:15 AM 55.4 °F 23.9 °F 30% 30.04 in 10.0 mi West 11.5 mph - N/A   Clear
6:35 AM 54.0 °F 23.9 °F 31% 30.05 in 10.0 mi West 6.9 mph - N/A   Clear
6:55 AM 55.6 °F 24.4 °F 30% 30.06 in 10.0 mi West 10.4 mph - N/A   Clear
7:15 AM 54.5 °F 24.3 °F 31% 30.07 in 10.0 mi West 5.8 mph - N/A   Clear
7:35 AM 57.6 °F 26.2 °F 30% 30.08 in 10.0 mi West 8.1 mph - N/A   Clear
7:55 AM 60.1 °F 27.5 °F 29% 30.08 in 10.0 mi West 9.2 mph - N/A   Clear
8:15 AM 61.7 °F 28.4 °F 28% 30.08 in 10.0 mi West 11.5 mph - N/A   Clear
8:35 AM 63.3 °F 29.5 °F 28% 30.08 in 10.0 mi West 13.8 mph - N/A   Clear
8:55 AM 64.4 °F 29.8 °F 27% 30.09 in 10.0 mi WNW 15.0 mph 20.7 mph N/A   Clear
9:15 AM 64.8 °F 29.8 °F 27% 30.10 in 10.0 mi West 13.8 mph 25.3 mph N/A   Clear
9:35 AM 65.5 °F 29.8 °F 26% 30.10 in 10.0 mi WSW 13.8 mph 18.4 mph N/A   Clear
9:55 AM 65.8 °F 29.8 °F 26% 30.11 in 10.0 mi West 16.1 mph 25.3 mph N/A   Clear
10:15 AM 66.2 °F 29.3 °F 25% 30.10 in 10.0 mi West 17.3 mph 26.5 mph N/A   Clear
10:35 AM 66.9 °F 28.8 °F 24% 30.10 in 10.0 mi West 15.0 mph 23.0 mph N/A   Clear
10:55 AM 68.4 °F 28.0 °F 22% 30.10 in 10.0 mi West 16.1 mph 24.2 mph N/A   Clear
11:15 AM 69.6 °F 26.8 °F 20% 30.11 in 10.0 mi West 17.3 mph 23.0 mph N/A   Clear
11:35 AM 69.6 °F 27.1 °F 20% 30.10 in 10.0 mi West 13.8 mph 23.0 mph N/A   Clear
11:55 AM 71.2 °F 25.7 °F 18% 30.09 in 10.0 mi West 12.7 mph 21.9 mph N/A   Clear
12:15 PM 71.6 °F 22.1 °F 16% 30.08 in 10.0 mi West 20.7 mph 26.5 mph N/A   Clear
12:35 PM 72.0 °F 21.6 °F 15% 30.08 in 10.0 mi SW 12.7 mph 24.2 mph N/A   Clear
12:55 PM 73.0 °F 20.5 °F 14% 30.07 in 10.0 mi West 23.0 mph 27.6 mph N/A   Clear
1:15 PM 73.9 °F 18.9 °F 13% 30.06 in 10.0 mi WSW 20.7 mph 33.4 mph N/A   Clear
1:35 PM 74.1 °F 19.9 °F 13% 30.06 in 10.0 mi WSW 17.3 mph 31.1 mph N/A   Clear
1:55 PM 73.6 °F 21.2 °F 14% 30.05 in 10.0 mi WSW 17.3 mph 32.2 mph N/A   Clear
2:15 PM 74.3 °F 21.9 °F 14% 30.04 in 10.0 mi WSW 18.4 mph 25.3 mph N/A   Clear
2:35 PM 75.0 °F 21.7 °F 14% 30.03 in 10.0 mi SW 17.3 mph 25.3 mph N/A   Clear
2:55 PM 75.4 °F 20.8 °F 13% 30.02 in 10.0 mi WSW 17.3 mph 27.6 mph N/A   Clear
3:15 PM 76.5 °F 20.7 °F 12% 30.01 in 10.0 mi West 20.7 mph 26.5 mph N/A   Clear
3:35 PM 75.9 °F 20.3 °F 12% 30.00 in 10.0 mi WSW 15.0 mph 20.7 mph N/A   Clear
3:55 PM 78.6 °F 20.1 °F 11% 29.99 in 10.0 mi West 15.0 mph 24.2 mph N/A   Clear
4:15 PM 77.5 °F 19.4 °F 11% 29.98 in 10.0 mi WSW 9.2 mph 23.0 mph N/A   Clear
4:35 PM 78.6 °F 18.3 °F 10% 29.98 in 10.0 mi WSW 17.3 mph 29.9 mph N/A   Clear
4:55 PM 78.1 °F 18.1 °F 11% 29.98 in 10.0 mi WSW 13.8 mph 33.4 mph N/A   Clear
5:15 PM 78.1 °F 18.5 °F 11% 29.98 in 10.0 mi West 16.1 mph - N/A   Clear
5:35 PM 78.3 °F 18.7 °F 11% 29.98 in 10.0 mi West 21.9 mph 26.5 mph N/A   Clear
5:55 PM 77.0 °F 18.5 °F 11% 29.98 in 10.0 mi West 24.2 mph 29.9 mph N/A   Clear
6:15 PM 75.9 °F 18.7 °F 12% 29.98 in 10.0 mi West 15.0 mph 25.3 mph N/A   Clear
6:35 PM 75.9 °F 18.3 °F 11% 29.98 in 10.0 mi West 18.4 mph 25.3 mph N/A   Clear
6:55 PM 75.4 °F 18.7 °F 12% 29.97 in 10.0 mi West 18.4 mph 24.2 mph N/A   Clear
7:15 PM 74.7 °F 18.1 °F 12% 29.98 in 10.0 mi West 12.7 mph 19.6 mph N/A   Clear
7:35 PM 73.4 °F 17.6 °F 12% 29.98 in 10.0 mi West 13.8 mph 19.6 mph N/A   Clear
7:55 PM 72.0 °F 17.6 °F 13% 29.99 in 10.0 mi West 10.4 mph - N/A   Clear
8:15 PM 70.5 °F 15.8 °F 12% 29.99 in 10.0 mi WNW 8.1 mph - N/A   Clear
8:35 PM 68.7 °F 15.8 °F 13% 30.00 in 10.0 mi WNW 6.9 mph - N/A   Clear
9:15 PM 64.6 °F 14.7 °F 15% 30.01 in 10.0 mi NW 6.9 mph - N/A   Clear
9:35 PM 63.5 °F 14.2 °F 15% 30.01 in 10.0 mi NW 5.8 mph - N/A   Clear
10:35 PM 59.9 °F 13.1 °F 16% 30.03 in 10.0 mi WNW 8.1 mph - N/A   Clear
10:55 PM 57.2 °F 12.7 °F 17% 30.03 in 10.0 mi WNW 4.6 mph - N/A   Clear
11:55 PM 57.9 °F 14.2 °F 18% 30.04 in 10.0 mi WNW 6.9 mph - N/A   Clear